| time (UTC) | temp C | wind direction | speed KPH | gust KPH | rain 1hr cm | rain 24hr cm | rain mn cm | humidity % | barometer mb |
| 20260901125100 | 23 | 130 | 0.0 | 1.6 | 0.00 | 0.64 | 0.00 | 91 | 1012.9 |
| 20260901124604 | 23 | 130 | 0.0 | 4.8 | 0.00 | 0.64 | 0.00 | 91 | 1012.9 |
| 20260901124059 | 23 | 241 | 0.0 | 3.2 | 0.00 | 0.64 | 0.00 | 91 | 1012.8 |
| 20260901123600 | 23 | 126 | 0.0 | 3.2 | 0.00 | 0.64 | 0.00 | 91 | 1012.7 |
| 20260901123058 | 23 | 239 | 0.0 | 3.2 | 0.00 | 0.64 | 0.00 | 91 | 1012.7 |
| 20260901122558 | 23 | 224 | 0.0 | 3.2 | 0.00 | 0.64 | 0.00 | 91 | 1012.7 |
| 20260901122056 | 23 | 157 | 0.0 | 3.2 | 0.00 | 0.64 | 0.00 | 93 | 1012.7 |
| 20260901121603 | 23 | 175 | 0.0 | 0.0 | 0.00 | 0.64 | 0.00 | 93 | 1012.5 |
| 20260901121054 | 22 | 154 | 0.0 | 1.6 | 0.00 | 0.64 | 0.00 | 95 | 1012.5 |
| 20260901120553 | 22 | 152 | 0.0 | 3.2 | 0.00 | 0.64 | 0.00 | 95 | 1012.5 |
| 20260901120053 | 22 | 128 | 0.0 | 3.2 | 0.00 | 0.64 | 0.00 | 95 | 1012.3 |
| 20260901115553 | 22 | 138 | 0.0 | 0.0 | 0.00 | 0.64 | 0.00 | 95 | 1012.3 |
| 20260901115056 | 22 | 138 | 0.0 | 1.6 | 0.00 | 0.64 | 0.00 | 96 | 1012.3 |
| 20260901114553 | 22 | 167 | 0.0 | 3.2 | 0.00 | 0.64 | 0.00 | 96 | 1012.4 |
| 20260901114051 | 22 | 143 | 0.0 | 3.2 | 0.00 | 0.64 | 0.00 | 96 | 1012.2 |
| 20260901113551 | 21 | 138 | 0.0 | 3.2 | 0.00 | 0.64 | 0.00 | 97 | 1012.0 |
| 20260901113051 | 21 | 146 | 0.0 | 3.2 | 0.00 | 0.64 | 0.00 | 97 | 1012.0 |
| 20260901112549 | 21 | 139 | 1.6 | 3.2 | 0.00 | 0.64 | 0.00 | 97 | 1011.9 |
| 20260901112050 | 21 | 139 | 0.0 | 1.6 | 0.00 | 0.64 | 0.00 | 97 | 1012.1 |
| 20260901111550 | 21 | 136 | 0.0 | 1.6 | 0.00 | 0.64 | 0.00 | 97 | 1012.0 |
| 20260901111050 | 21 | 143 | 0.0 | 1.6 | 0.00 | 0.64 | 0.00 | 97 | 1012.0 |
| 20260901110549 | 21 | 144 | 0.0 | 1.6 | 0.00 | 0.64 | 0.00 | 97 | 1012.0 |
| 20260901110050 | 21 | 149 | 0.0 | 0.0 | 0.00 | 0.64 | 0.00 | 97 | 1012.0 |
| 20260901105551 | 21 | 149 | 0.0 | 1.6 | 0.00 | 0.64 | 0.00 | 97 | 1012.0 |
| 20260901105051 | 21 | 159 | 0.0 | 1.6 | 0.00 | 0.64 | 0.00 | 97 | 1012.0 |
| 20260901104550 | 21 | 159 | 0.0 | 1.6 | 0.00 | 0.64 | 0.00 | 97 | 1011.9 |
| 20260901104048 | 21 | 159 | 0.0 | 1.6 | 0.00 | 0.64 | 0.00 | 97 | 1011.9 |
| 20260901103548 | 21 | 131 | 0.0 | 1.6 | 0.00 | 0.64 | 0.00 | 97 | 1011.8 |
| 20260901103047 | 21 | 132 | 0.0 | 0.0 | 0.00 | 0.64 | 0.00 | 97 | 1011.8 |
| 20260901102547 | 21 | 132 | 0.0 | 0.0 | 0.00 | 0.64 | 0.00 | 97 | 1011.9 |
| 20260901102047 | 21 | 132 | 0.0 | 0.0 | 0.00 | 0.64 | 0.00 | 97 | 1011.9 |
| 20260901101601 | 21 | 132 | 0.0 | 0.0 | 0.00 | 0.64 | 0.00 | 97 | 1011.9 |
| 20260901101046 | 21 | 134 | 0.0 | 0.0 | 0.00 | 0.64 | 0.00 | 97 | 1011.9 |
| 20260901100549 | 21 | 134 | 0.0 | 0.0 | 0.00 | 0.64 | 0.00 | 97 | 1012.0 |
| 20260901100051 | 21 | 146 | 0.0 | 1.6 | 0.00 | 0.64 | 0.00 | 97 | 1012.0 |
| 20260901095547 | 21 | 161 | 0.0 | 1.6 | 0.00 | 0.64 | 0.00 | 97 | 1011.9 |
| 20260901095046 | 21 | 188 | 0.0 | 0.0 | 0.00 | 0.64 | 0.00 | 97 | 1011.8 |
| 20260901094546 | 21 | 187 | 0.0 | 0.0 | 0.00 | 0.64 | 0.00 | 97 | 1011.8 |
| 20260901094045 | 21 | 187 | 0.0 | 0.0 | 0.00 | 0.64 | 0.00 | 97 | 1011.7 |
| 20260901093544 | 21 | 187 | 0.0 | 0.0 | 0.00 | 0.64 | 0.00 | 97 | 1011.8 |
| 20260901093043 | 21 | 187 | 0.0 | 0.0 | 0.00 | 0.64 | 0.00 | 96 | 1011.8 |
| 20260901092544 | 21 | 188 | 0.0 | 0.0 | 0.00 | 0.64 | 0.00 | 96 | 1011.9 |
| 20260901092044 | 21 | 188 | 0.0 | 0.0 | 0.00 | 0.64 | 0.00 | 96 | 1011.8 |
| 20260901091553 | 22 | 188 | 0.0 | 0.0 | 0.00 | 0.64 | 0.00 | 96 | 1011.7 |
| 20260901091040 | 22 | 188 | 0.0 | 0.0 | 0.00 | 0.64 | 0.00 | 95 | 1011.7 |
| 20260901090540 | 22 | 205 | 0.0 | 0.0 | 0.00 | 0.64 | 0.00 | 95 | 1011.7 |
| 20260901090040 | 22 | 205 | 0.0 | 0.0 | 0.00 | 0.64 | 0.00 | 95 | 1011.7 |
| 20260901085540 | 22 | 205 | 0.0 | 0.0 | 0.00 | 0.64 | 0.00 | 95 | 1011.7 |
| 20260901085040 | 22 | 205 | 0.0 | 0.0 | 0.00 | 0.64 | 0.00 | 95 | 1011.6 |
| 20260901084542 | 22 | 205 | 0.0 | 0.0 | 0.00 | 0.64 | 0.00 | 95 | 1011.7 |
| 20260901084040 | 22 | 139 | 0.0 | 1.6 | 0.00 | 0.64 | 0.00 | 94 | 1011.6 |
| 20260901083540 | 22 | 140 | 0.0 | 1.6 | 0.00 | 0.64 | 0.00 | 94 | 1011.5 |
| 20260901083043 | 22 | 258 | 0.0 | 3.2 | 0.00 | 0.64 | 0.00 | 94 | 1011.6 |
| 20260901082538 | 22 | 146 | 0.0 | 3.2 | 0.00 | 0.64 | 0.00 | 94 | 1011.6 |
| 20260901082040 | 22 | 224 | 0.0 | 4.8 | 0.00 | 0.64 | 0.00 | 94 | 1011.7 |
| 20260901081538 | 22 | 226 | 0.0 | 4.8 | 0.00 | 0.64 | 0.00 | 94 | 1011.6 |
| 20260901081038 | 22 | 200 | 0.0 | 1.6 | 0.00 | 0.64 | 0.00 | 94 | 1011.7 |
| 20260901080541 | 22 | 245 | 0.0 | 3.2 | 0.00 | 0.64 | 0.00 | 94 | 1011.6 |
| 20260901080130 | 22 | 213 | 0.0 | 4.8 | 0.00 | 0.64 | 0.00 | 94 | 1011.6 |
| 20260901075537 | 22 | 226 | 0.0 | 4.8 | 0.00 | 0.64 | 0.00 | 94 | 1011.7 |
| 20260901075037 | 22 | 181 | 0.0 | 6.4 | 0.00 | 0.64 | 0.00 | 94 | 1011.6 |
| 20260901074537 | 22 | 221 | 0.0 | 6.4 | 0.00 | 0.64 | 0.00 | 95 | 1011.6 |
| 20260901074036 | 22 | 152 | 0.0 | 1.6 | 0.00 | 0.64 | 0.00 | 95 | 1011.6 |
| 20260901073536 | 22 | 155 | 0.0 | 1.6 | 0.00 | 0.64 | 0.00 | 95 | 1011.6 |
| 20260901073035 | 22 | 243 | 0.0 | 1.6 | 0.00 | 0.64 | 0.00 | 95 | 1011.6 |
| 20260901072535 | 22 | 181 | 0.0 | 3.2 | 0.00 | 0.64 | 0.00 | 95 | 1011.6 |
| 20260901072036 | 22 | 224 | 0.0 | 3.2 | 0.00 | 0.64 | 0.00 | 95 | 1011.6 |
| 20260901071539 | 22 | 134 | 0.0 | 1.6 | 0.00 | 0.64 | 0.00 | 94 | 1011.6 |
| 20260901071034 | 22 | 149 | 0.0 | 1.6 | 0.00 | 0.64 | 0.00 | 94 | 1011.6 |
| 20260901070534 | 22 | 131 | 0.0 | 1.6 | 0.00 | 0.64 | 0.00 | 95 | 1011.6 |
| 20260901070036 | 22 | 133 | 0.0 | 1.6 | 0.00 | 0.64 | 0.00 | 94 | 1011.6 |
| 20260901065534 | 22 | 148 | 0.0 | 3.2 | 0.00 | 0.64 | 0.00 | 94 | 1011.6 |
| 20260901065034 | 22 | 207 | 0.0 | 3.2 | 0.00 | 0.64 | 0.00 | 94 | 1011.7 |
| 20260901064534 | 22 | 150 | 0.0 | 3.2 | 0.00 | 0.64 | 0.00 | 95 | 1011.7 |
| 20260901064033 | 22 | 142 | 0.0 | 1.6 | 0.00 | 0.64 | 0.00 | 95 | 1011.6 |
| 20260901063531 | 22 | 151 | 0.0 | 0.0 | 0.00 | 0.64 | 0.00 | 95 | 1011.7 |
| 20260901063036 | 22 | 202 | 0.0 | 0.0 | 0.00 | 0.64 | 0.00 | 95 | 1011.7 |
| 20260901062527 | 22 | 232 | 0.0 | 0.0 | 0.00 | 0.64 | 0.00 | 94 | 1011.7 |
| 20260901062026 | 22 | 186 | 0.0 | 0.0 | 0.00 | 0.64 | 0.00 | 94 | 1011.7 |
| 20260901061525 | 22 | 231 | 0.0 | 0.0 | 0.00 | 0.64 | 0.00 | 94 | 1011.8 |
| 20260901061024 | 22 | 230 | 0.0 | 0.0 | 0.00 | 0.64 | 0.00 | 94 | 1011.8 |
| 20260901060522 | 22 | 231 | 0.0 | 0.0 | 0.00 | 0.64 | 0.00 | 94 | 1011.8 |
| 20260901060020 | 22 | 232 | 0.0 | 0.0 | 0.00 | 0.64 | 0.00 | 94 | 1011.9 |
| 20260901055519 | 22 | 148 | 0.0 | 1.6 | 0.00 | 0.64 | 0.00 | 94 | 1011.9 |
| 20260901055020 | 22 | 124 | 0.0 | 1.6 | 0.00 | 0.64 | 0.00 | 95 | 1011.9 |
| 20260901054517 | 22 | 204 | 0.0 | 1.6 | 0.00 | 0.64 | 0.00 | 95 | 1012.0 |
| 20260901054017 | 22 | 152 | 0.0 | 1.6 | 0.00 | 0.64 | 0.00 | 95 | 1012.0 |
| 20260901053517 | 22 | 136 | 0.0 | 1.6 | 0.00 | 0.64 | 0.00 | 95 | 1012.0 |
| 20260901053017 | 22 | 134 | 0.0 | 0.0 | 0.00 | 0.64 | 0.00 | 95 | 1012.1 |
| 20260901052516 | 22 | 134 | 0.0 | 0.0 | 0.00 | 0.64 | 0.00 | 95 | 1012.1 |
| 20260901052015 | 22 | 134 | 0.0 | 0.0 | 0.00 | 0.64 | 0.00 | 95 | 1012.0 |
| 20260901051516 | 22 | 134 | 0.0 | 0.0 | 0.00 | 0.64 | 0.00 | 95 | 1012.0 |
| 20260901051015 | 22 | 134 | 0.0 | 0.0 | 0.00 | 0.64 | 0.00 | 95 | 1012.0 |
| 20260901050515 | 22 | 134 | 0.0 | 1.6 | 0.00 | 0.64 | 0.00 | 95 | 1011.9 |
| 20260901050015 | 22 | 134 | 0.0 | 1.6 | 0.00 | 0.64 | 0.00 | 95 | 1011.9 |
| 20260901045514 | 22 | 134 | 0.0 | 0.0 | 0.00 | 0.64 | 0.00 | 95 | 1012.1 |
| 20260901045014 | 22 | 134 | 0.0 | 0.0 | 0.00 | 0.64 | 0.00 | 95 | 1012.1 |
| 20260901044514 | 22 | 134 | 0.0 | 0.0 | 0.00 | 0.64 | 0.00 | 95 | 1012.0 |
| 20260901044014 | 22 | 134 | 0.0 | 1.6 | 0.00 | 0.64 | 0.00 | 95 | 1011.9 |
| 20260901043514 | 22 | 134 | 0.0 | 0.0 | 0.00 | 0.64 | 0.00 | 95 | 1011.9 |
| 20260901043024 | 22 | 134 | 0.0 | 1.6 | 0.00 | 0.64 | 0.00 | 95 | 1011.9 |
| 20260901042512 | 22 | 134 | 0.0 | 1.6 | 0.00 | 0.64 | 0.00 | 95 | 1012.0 |
| 20260901042011 | 22 | 134 | 0.0 | 0.0 | 0.00 | 0.64 | 0.00 | 94 | 1012.0 |
| 20260901041514 | 22 | 134 | 0.0 | 1.6 | 0.00 | 0.64 | 0.00 | 94 | 1012.0 |
| 20260901041008 | 22 | 134 | 0.0 | 1.6 | 0.00 | 0.64 | 0.00 | 94 | 1012.0 |
| 20260901040507 | 22 | 134 | 0.0 | 1.6 | 0.00 | 0.64 | 0.00 | 93 | 1012.0 |
| 20260901040008 | 22 | 134 | 0.0 | 1.6 | 0.00 | 0.64 | 0.00 | 93 | 1012.0 |
| 20260901035505 | 22 | 134 | 0.0 | 1.6 | 0.00 | 0.64 | 0.64 | 93 | 1012.0 |
| 20260901035006 | 22 | 135 | 0.0 | 0.0 | 0.00 | 0.64 | 0.64 | 93 | 1012.1 |
| 20260901034505 | 23 | 135 | 0.0 | 0.0 | 0.00 | 0.64 | 0.64 | 92 | 1012.2 |
| 20260901034005 | 23 | 135 | 0.0 | 0.0 | 0.00 | 0.64 | 0.64 | 92 | 1012.2 |
| 20260901033505 | 23 | 135 | 0.0 | 0.0 | 0.00 | 0.64 | 0.64 | 91 | 1012.2 |
| 20260901033004 | 23 | 135 | 0.0 | 0.0 | 0.00 | 0.64 | 0.64 | 91 | 1012.2 |
| 20260901032504 | 23 | 135 | 0.0 | 0.0 | 0.00 | 0.64 | 0.64 | 91 | 1012.2 |
| 20260901032004 | 23 | 135 | 0.0 | 0.0 | 0.00 | 0.64 | 0.64 | 91 | 1012.1 |
| 20260901031504 | 23 | 135 | 0.0 | 0.0 | 0.00 | 0.64 | 0.64 | 90 | 1012.2 |
| 20260901031003 | 23 | 135 | 0.0 | 0.0 | 0.00 | 0.64 | 0.64 | 90 | 1012.1 |
| 20260901030503 | 23 | 135 | 0.0 | 0.0 | 0.00 | 0.64 | 0.64 | 89 | 1012.1 |
| 20260901030003 | 23 | 135 | 0.0 | 1.6 | 0.00 | 0.64 | 0.64 | 89 | 1012.0 |
| 20260901025506 | 24 | 134 | 0.0 | 1.6 | 0.00 | 0.64 | 0.64 | 89 | 1011.9 |
| 20260901025003 | 24 | 245 | 0.0 | 1.6 | 0.00 | 0.64 | 0.64 | 88 | 1011.8 |
| 20260901024504 | 24 | 245 | 0.0 | 1.6 | 0.00 | 0.64 | 0.64 | 88 | 1011.8 |
| 20260901024005 | 24 | 243 | 0.0 | 3.2 | 0.00 | 0.64 | 0.64 | 88 | 1011.9 |
| 20260901023503 | 24 | 91 | 0.0 | 3.2 | 0.00 | 0.64 | 0.64 | 88 | 1011.7 |
| 20260901023002 | 24 | 121 | 0.0 | 4.8 | 0.00 | 0.64 | 0.64 | 87 | 1011.7 |
| 20260901022503 | 24 | 150 | 0.0 | 4.8 | 0.00 | 0.64 | 0.64 | 87 | 1011.8 |
| 20260901022002 | 24 | 233 | 0.0 | 4.8 | 0.00 | 0.64 | 0.64 | 87 | 1011.9 |
| 20260901021502 | 25 | 236 | 0.0 | 4.8 | 0.00 | 0.64 | 0.64 | 87 | 1012.0 |
| 20260901021003 | 25 | 245 | 0.0 | 8.0 | 0.00 | 0.64 | 0.64 | 87 | 1012.1 |
| 20260901020503 | 24 | 125 | 1.6 | 8.0 | 0.00 | 0.64 | 0.64 | 87 | 1012.0 |
| 20260901020002 | 24 | 226 | 1.6 | 8.0 | 0.00 | 0.64 | 0.64 | 88 | 1012.0 |
| 20260901015501 | 24 | 195 | 0.0 | 4.8 | 0.00 | 0.64 | 0.64 | 89 | 1011.9 |
| 20260901015002 | 24 | 229 | 0.0 | 1.6 | 0.00 | 0.64 | 0.64 | 89 | 1012.0 |
| 20260901014501 | 24 | 123 | 0.0 | 1.6 | 0.00 | 0.64 | 0.64 | 89 | 1012.1 |
| 20260901014001 | 24 | 224 | 0.0 | 1.6 | 0.00 | 0.64 | 0.64 | 89 | 1012.2 |
| 20260901013501 | 24 | 252 | 0.0 | 0.0 | 0.00 | 0.64 | 0.64 | 88 | 1012.1 |
| 20260901013120 | 24 | 252 | 0.0 | 1.6 | 0.00 | 0.64 | 0.64 | 88 | 1012.0 |
| 20260901012601 | 24 | 252 | 0.0 | 1.6 | 0.00 | 0.64 | 0.64 | 88 | 1011.8 |
| 20260901012059 | 24 | 252 | 0.0 | 1.6 | 0.00 | 0.64 | 0.64 | 87 | 1012.0 |
| 20260901011600 | 25 | 252 | 0.0 | 3.2 | 0.00 | 0.64 | 0.64 | 87 | 1011.9 |
| 20260901011100 | 25 | 231 | 0.0 | 3.2 | 0.00 | 0.64 | 0.64 | 87 | 1011.9 |
| 20260901010600 | 25 | 122 | 0.0 | 3.2 | 0.00 | 0.64 | 0.64 | 86 | 1011.6 |
| 20260901010059 | 25 | 179 | 0.0 | 3.2 | 0.00 | 0.64 | 0.64 | 86 | 1011.8 |
| 20260901005559 | 25 | 140 | 0.0 | 6.4 | 0.00 | 0.64 | 0.64 | 86 | 1011.7 |
| 20260901005058 | 25 | 237 | 0.0 | 6.4 | 0.00 | 0.64 | 0.64 | 85 | 1011.9 |
| 20260901004559 | 25 | 240 | 0.0 | 4.8 | 0.00 | 0.64 | 0.64 | 85 | 1011.9 |
| 20260901004102 | 25 | 242 | 0.0 | 3.2 | 0.00 | 0.64 | 0.64 | 85 | 1011.8 |
| 20260901003558 | 25 | 231 | 0.0 | 6.4 | 0.00 | 0.64 | 0.64 | 85 | 1011.7 |
| 20260901003058 | 25 | 284 | 0.0 | 6.4 | 0.00 | 0.64 | 0.64 | 84 | 1011.8 |
| 20260901002558 | 25 | 281 | 1.6 | 4.8 | 0.00 | 0.64 | 0.64 | 84 | 1011.7 |
| 20260901002058 | 25 | 264 | 0.0 | 6.4 | 0.00 | 0.64 | 0.64 | 83 | 1011.8 |
| 20260901001604 | 26 | 190 | 1.6 | 9.7 | 0.00 | 0.64 | 0.64 | 83 | 1011.8 |
| 20260901001058 | 26 | 274 | 0.0 | 9.7 | 0.00 | 0.64 | 0.64 | 82 | 1011.8 |
| 20260901000557 | 26 | 271 | 3.2 | 14.5 | 0.00 | 0.64 | 0.64 | 82 | 1011.7 |
| 20260901000057 | 26 | 235 | 4.8 | 14.5 | 0.00 | 0.64 | 0.64 | 81 | 1011.7 |
| 20260831235557 | 26 | 281 | 3.2 | 11.3 | 0.00 | 0.64 | 0.64 | 80 | 1011.7 |
| 20260831235100 | 26 | 234 | 4.8 | 14.5 | 0.00 | 0.64 | 0.64 | 80 | 1011.5 |
| 20260831234558 | 26 | 310 | 6.4 | 14.5 | 0.00 | 0.64 | 0.64 | 79 | 1011.4 |
| 20260831234104 | 27 | 224 | 4.8 | 12.9 | 0.00 | 0.64 | 0.64 | 79 | 1011.2 |
| 20260831233557 | 27 | 238 | 4.8 | 12.9 | 0.00 | 0.64 | 0.64 | 78 | 1011.2 |
| 20260831233055 | 27 | 276 | 3.2 | 8.0 | 0.00 | 0.64 | 0.64 | 78 | 1011.2 |
| 20260831232555 | 27 | 231 | 3.2 | 11.3 | 0.00 | 0.64 | 0.64 | 78 | 1011.2 |
| 20260831232055 | 26 | 278 | 4.8 | 11.3 | 0.00 | 0.64 | 0.64 | 79 | 1011.3 |
| 20260831231605 | 26 | 251 | 1.6 | 9.7 | 0.00 | 0.64 | 0.64 | 79 | 1011.4 |
| 20260831231054 | 26 | 221 | 4.8 | 9.7 | 0.00 | 0.64 | 0.64 | 79 | 1011.4 |
| 20260831230554 | 26 | 221 | 3.2 | 9.7 | 0.00 | 0.64 | 0.64 | 78 | 1011.3 |
| 20260831230100 | 26 | 257 | 1.6 | 8.0 | 0.00 | 0.64 | 0.64 | 78 | 1011.3 |
| 20260831225554 | 27 | 267 | 1.6 | 6.4 | 0.00 | 0.64 | 0.64 | 78 | 1011.3 |
| 20260831225054 | 27 | 216 | 1.6 | 8.0 | 0.00 | 0.64 | 0.64 | 78 | 1011.3 |
| 20260831224624 | 27 | 264 | 3.2 | 9.7 | 0.00 | 0.64 | 0.64 | 77 | 1011.1 |
| 20260831224054 | 27 | 268 | 3.2 | 12.9 | 0.00 | 0.64 | 0.64 | 77 | 1011.0 |
| 20260831223554 | 27 | 271 | 3.2 | 17.7 | 0.00 | 0.64 | 0.64 | 77 | 1010.9 |
| 20260831223053 | 27 | 276 | 4.8 | 14.5 | 0.00 | 0.64 | 0.64 | 77 | 1010.8 |
| 20260831222552 | 27 | 225 | 4.8 | 12.9 | 0.00 | 0.64 | 0.64 | 77 | 1010.9 |
| 20260831222052 | 27 | 158 | 3.2 | 8.0 | 0.00 | 0.64 | 0.64 | 77 | 1010.9 |
| 20260831221600 | 27 | 228 | 1.6 | 16.1 | 0.00 | 0.64 | 0.64 | 77 | 1010.9 |
| 20260831221052 | 27 | 280 | 8.0 | 16.1 | 0.00 | 0.64 | 0.64 | 77 | 1011.0 |
| 20260831220552 | 27 | 283 | 4.8 | 14.5 | 0.00 | 0.64 | 0.64 | 76 | 1011.1 |
| 20260831220054 | 27 | 255 | 4.8 | 12.9 | 0.00 | 0.64 | 0.64 | 77 | 1011.1 |
| 20260831215552 | 27 | 223 | 6.4 | 11.3 | 0.00 | 0.64 | 0.64 | 79 | 1011.1 |
| 20260831215052 | 28 | 310 | 4.8 | 12.9 | 0.00 | 0.64 | 0.64 | 80 | 1011.1 |
| 20260831214551 | 28 | 224 | 4.8 | 12.9 | 0.00 | 0.64 | 0.64 | 80 | 1011.1 |
| 20260831214054 | 28 | 191 | 3.2 | 9.7 | 0.00 | 0.64 | 0.64 | 81 | 1011.2 |
| 20260831213550 | 27 | 266 | 3.2 | 9.7 | 0.00 | 0.64 | 0.64 | 81 | 1011.2 |
| 20260831213050 | 27 | 240 | 0.0 | 9.7 | 0.00 | 0.64 | 0.64 | 82 | 1011.2 |
| 20260831212550 | 27 | 236 | 1.6 | 12.9 | 0.00 | 0.64 | 0.64 | 82 | 1011.2 |
| 20260831212049 | 27 | 214 | 4.8 | 12.9 | 0.00 | 0.64 | 0.64 | 82 | 1011.1 |
| 20260831211604 | 26 | 246 | 3.2 | 12.9 | 0.00 | 0.64 | 0.64 | 84 | 1011.1 |
| 20260831211048 | 26 | 293 | 3.2 | 9.7 | 0.00 | 0.64 | 0.64 | 86 | 1011.1 |
| 20260831210548 | 25 | 137 | 1.6 | 14.5 | 0.08 | 0.64 | 0.64 | 89 | 1011.0 |
| 20260831210056 | 24 | 254 | 3.2 | 14.5 | 0.08 | 0.64 | 0.64 | 89 | 1011.0 |
| 20260831205549 | 23 | 118 | 4.8 | 12.9 | 0.08 | 0.64 | 0.64 | 90 | 1010.9 |
| 20260831205047 | 23 | 108 | 1.6 | 9.7 | 0.08 | 0.64 | 0.64 | 90 | 1011.0 |
| 20260831204547 | 23 | 109 | 1.6 | 8.0 | 0.08 | 0.64 | 0.64 | 90 | 1011.3 |
| 20260831204047 | 23 | 148 | 3.2 | 9.7 | 0.08 | 0.64 | 0.64 | 90 | 1011.3 |
| 20260831203547 | 23 | 115 | 4.8 | 9.7 | 0.10 | 0.64 | 0.64 | 89 | 1011.3 |
| 20260831203049 | 23 | 124 | 0.0 | 6.4 | 0.25 | 0.64 | 0.64 | 90 | 1011.3 |
| 20260831202546 | 23 | 103 | 1.6 | 6.4 | 0.25 | 0.64 | 0.64 | 89 | 1011.2 |
| 20260831202047 | 23 | 184 | 0.0 | 6.4 | 0.36 | 0.64 | 0.64 | 89 | 1011.3 |
| 20260831201546 | 23 | 138 | 0.0 | 6.4 | 0.41 | 0.64 | 0.64 | 89 | 1011.5 |
| 20260831201046 | 23 | 151 | 3.2 | 11.3 | 0.41 | 0.64 | 0.64 | 88 | 1011.3 |
| 20260831200546 | 23 | 186 | 1.6 | 11.3 | 0.33 | 0.56 | 0.56 | 89 | 1011.4 |
| 20260831200046 | 23 | 136 | 3.2 | 9.7 | 0.33 | 0.56 | 0.56 | 89 | 1011.3 |
| 20260831195548 | 23 | 127 | 0.0 | 9.7 | 0.33 | 0.56 | 0.56 | 92 | 1011.1 |
| 20260831195048 | 22 | 116 | 1.6 | 9.7 | 0.33 | 0.56 | 0.56 | 92 | 1011.1 |
| 20260831194555 | 22 | 167 | 3.2 | 9.7 | 0.33 | 0.56 | 0.56 | 91 | 1011.3 |
| 20260831194045 | 22 | 43 | 4.8 | 0.0 | 0.00 | 0.00 | 0.56 | 91 | 1011.3 |
| 20260831193544 | 23 | 127 | 4.8 | 11.3 | 0.38 | 0.53 | 0.53 | 90 | 1011.0 |
| 20260831193050 | 23 | 184 | 1.6 | 11.3 | 0.23 | 0.38 | 0.38 | 90 | 1012.3 |
| 20260831192544 | 23 | 156 | 4.8 | 16.1 | 0.30 | 0.38 | 0.38 | 88 | 1012.0 |
| 20260831192042 | 23 | 128 | 4.8 | 11.3 | 0.25 | 0.28 | 0.28 | 87 | 1011.8 |
| 20260831191549 | 23 | 181 | 4.8 | 12.9 | 0.20 | 0.23 | 0.23 | 88 | 1011.8 |
| 20260831191043 | 23 | 128 | 4.8 | 12.9 | 0.20 | 0.23 | 0.23 | 88 | 1012.0 |
| 20260831190541 | 23 | 107 | 3.2 | 11.3 | 0.20 | 0.23 | 0.23 | 90 | 1011.9 |
| 20260831190043 | 23 | 99 | 3.2 | 9.7 | 0.20 | 0.23 | 0.23 | 91 | 1012.2 |
| 20260831185541 | 23 | 136 | 4.8 | 9.7 | 0.20 | 0.23 | 0.23 | 92 | 1012.3 |
| 20260831185040 | 23 | 155 | 3.2 | 9.7 | 0.20 | 0.23 | 0.23 | 92 | 1012.2 |
| 20260831184540 | 23 | 86 | 3.2 | 6.4 | 0.20 | 0.23 | 0.23 | 90 | 1013.1 |
| 20260831184041 | 24 | 80 | 0.0 | 3.2 | 0.13 | 0.15 | 0.15 | 89 | 1013.1 |
| 20260831183540 | 25 | 83 | 0.0 | 3.2 | 0.13 | 0.15 | 0.15 | 87 | 1013.1 |
| 20260831183040 | 26 | 83 | 1.6 | 4.8 | 0.13 | 0.15 | 0.15 | 81 | 1012.8 |
| 20260831182538 | 26 | 285 | 3.2 | 4.8 | 0.03 | 0.05 | 0.05 | 75 | 1013.3 |
| 20260831182038 | 26 | 261 | 1.6 | 6.4 | 0.00 | 0.03 | 0.03 | 74 | 1013.0 |
| 20260831181541 | 26 | 282 | 1.6 | 12.9 | 0.00 | 0.03 | 0.03 | 73 | 1012.6 |
| 20260831181038 | 26 | 220 | 3.2 | 11.3 | 0.00 | 0.03 | 0.03 | 72 | 1012.1 |
| 20260831180536 | 27 | 157 | 3.2 | 9.7 | 0.00 | 0.03 | 0.03 | 71 | 1012.2 |
| 20260831180040 | 27 | 282 | 3.2 | 20.9 | 0.00 | 0.03 | 0.03 | 70 | 1012.3 |
| 20260831175540 | 27 | 112 | 9.7 | 20.9 | 0.00 | 0.03 | 0.03 | 68 | 1012.4 |
| 20260831175037 | 27 | 263 | 4.8 | 22.5 | 0.00 | 0.03 | 0.03 | 68 | 1012.4 |
| 20260831174536 | 27 | 216 | 8.0 | 25.7 | 0.00 | 0.03 | 0.03 | 66 | 1012.5 |
| 20260831174035 | 28 | 224 | 8.0 | 22.5 | 0.00 | 0.03 | 0.03 | 67 | 1012.5 |
| 20260831173535 | 28 | 232 | 6.4 | 29.0 | 0.00 | 0.03 | 0.03 | 68 | 1012.4 |
| 20260831173040 | 27 | 217 | 14.5 | 29.0 | 0.00 | 0.03 | 0.03 | 69 | 1012.6 |
| 20260831172531 | 27 | 225 | 6.4 | 20.9 | 0.00 | 0.03 | 0.03 | 71 | 1012.8 |
| 20260831172032 | 27 | 136 | 6.4 | 20.9 | 0.00 | 0.03 | 0.03 | 74 | 1012.8 |
| 20260831171529 | 26 | 203 | 6.4 | 16.1 | 0.00 | 0.03 | 0.03 | 74 | 1012.8 |
| 20260831171028 | 26 | 244 | 6.4 | 19.3 | 0.00 | 0.03 | 0.03 | 74 | 1012.7 |
| 20260831170528 | 26 | 217 | 8.0 | 20.9 | 0.00 | 0.03 | 0.03 | 74 | 1012.6 |
| 20260831170026 | 26 | 255 | 4.8 | 20.9 | 0.00 | 0.03 | 0.03 | 77 | 1012.9 |
| 20260831165525 | 26 | 247 | 8.0 | 17.7 | 0.00 | 0.03 | 0.03 | 77 | 1013.0 |
| 20260831165023 | 25 | 217 | 8.0 | 17.7 | 0.00 | 0.03 | 0.03 | 77 | 1013.0 |
| 20260831164525 | 25 | 191 | 4.8 | 16.1 | 0.00 | 0.03 | 0.03 | 78 | 1013.1 |
| 20260831164022 | 25 | 146 | 6.4 | 16.1 | 0.00 | 0.03 | 0.03 | 78 | 1013.2 |
| 20260831163524 | 25 | 246 | 4.8 | 14.5 | 0.00 | 0.03 | 0.03 | 80 | 1013.3 |
| 20260831163020 | 25 | 219 | 6.4 | 14.5 | 0.00 | 0.03 | 0.03 | 81 | 1013.4 |
| 20260831162523 | 25 | 169 | 6.4 | 14.5 | 0.00 | 0.03 | 0.03 | 81 | 1013.3 |
| 20260831162018 | 24 | 221 | 4.8 | 12.9 | 0.00 | 0.03 | 0.03 | 82 | 1013.4 |
| 20260831161517 | 24 | 216 | 6.4 | 17.7 | 0.00 | 0.03 | 0.03 | 82 | 1013.5 |
| 20260831161015 | 23 | 257 | 4.8 | 14.5 | 0.00 | 0.03 | 0.03 | 84 | 1013.6 |
| 20260831160515 | 23 | 229 | 4.8 | 16.1 | 0.00 | 0.03 | 0.03 | 84 | 1013.6 |
| 20260831160025 | 23 | 234 | 6.4 | 16.1 | 0.00 | 0.03 | 0.03 | 84 | 1013.7 |
| 20260831155514 | 23 | 150 | 6.4 | 12.9 | 0.00 | 0.03 | 0.03 | 85 | 1013.7 |
| 20260831155015 | 23 | 267 | 4.8 | 11.3 | 0.00 | 0.03 | 0.03 | 86 | 1013.7 |
| 20260831154512 | 23 | 247 | 3.2 | 9.7 | 0.00 | 0.03 | 0.03 | 86 | 1013.7 |
| 20260831154012 | 23 | 160 | 3.2 | 12.9 | 0.00 | 0.03 | 0.03 | 87 | 1013.8 |
| 20260831153511 | 22 | 186 | 1.6 | 17.7 | 0.00 | 0.03 | 0.03 | 86 | 1013.8 |
| 20260831153011 | 22 | 152 | 8.0 | 17.7 | 0.03 | 0.03 | 0.03 | 86 | 1013.9 |
| 20260831152512 | 22 | 203 | 4.8 | 12.9 | 0.03 | 0.03 | 0.03 | 86 | 1013.9 |
| 20260831152011 | 22 | 138 | 3.2 | 14.5 | 0.03 | 0.03 | 0.03 | 86 | 1013.9 |
| 20260831151511 | 22 | 138 | 6.4 | 16.1 | 0.03 | 0.03 | 0.03 | 87 | 1014.0 |
| 20260831151013 | 22 | 136 | 4.8 | 16.1 | 0.03 | 0.03 | 0.03 | 87 | 1013.9 |
| 20260831150511 | 22 | 212 | 6.4 | 17.7 | 0.03 | 0.03 | 0.03 | 88 | 1014.1 |
| 20260831150012 | 22 | 160 | 4.8 | 17.7 | 0.03 | 0.03 | 0.03 | 89 | 1013.9 |
| 20260831145510 | 22 | 130 | 3.2 | 9.7 | 0.03 | 0.10 | 0.03 | 89 | 1014.0 |
| 20260831145010 | 22 | 163 | 4.8 | 9.7 | 0.03 | 0.10 | 0.03 | 88 | 1014.3 |
| 20260831144512 | 22 | 102 | 1.6 | 6.4 | 0.03 | 0.10 | 0.03 | 87 | 1014.6 |
| 20260831144010 | 22 | 134 | 1.6 | 6.4 | 0.03 | 0.10 | 0.03 | 85 | 1014.7 |
| 20260831143509 | 23 | 159 | 0.0 | 4.8 | 0.03 | 0.10 | 0.03 | 85 | 1014.7 |
| 20260831143011 | 23 | 123 | 1.6 | 4.8 | 0.00 | 0.08 | 0.00 | 84 | 1014.5 |
| 20260831142509 | 23 | 151 | 0.0 | 4.8 | 0.00 | 0.08 | 0.00 | 85 | 1014.4 |
| 20260831142008 | 23 | 162 | 0.0 | 9.7 | 0.00 | 0.08 | 0.00 | 85 | 1014.3 |
| 20260831141509 | 23 | 121 | 4.8 | 9.7 | 0.00 | 0.08 | 0.00 | 85 | 1014.0 |
| 20260831141006 | 23 | 124 | 1.6 | 6.4 | 0.00 | 0.08 | 0.00 | 85 | 1014.0 |
| 20260831140507 | 23 | 184 | 0.0 | 8.0 | 0.00 | 0.08 | 0.00 | 85 | 1014.2 |
| 20260831140006 | 23 | 153 | 1.6 | 8.0 | 0.00 | 0.08 | 0.00 | 85 | 1014.0 |
| 20260831135506 | 23 | 129 | 1.6 | 6.4 | 0.00 | 0.66 | 0.00 | 85 | 1014.1 |
| 20260831135006 | 23 | 158 | 0.0 | 6.4 | 0.00 | 0.66 | 0.00 | 84 | 1014.2 |
| 20260831134506 | 23 | 117 | 0.0 | 3.2 | 0.00 | 0.66 | 0.00 | 84 | 1014.0 |
| 20260831134007 | 23 | 139 | 0.0 | 9.7 | 0.00 | 0.66 | 0.00 | 84 | 1014.1 |
| 20260831133505 | 23 | 121 | 3.2 | 8.0 | 0.00 | 0.66 | 0.00 | 84 | 1014.0 |
| 20260831133005 | 23 | 286 | 0.0 | 9.7 | 0.00 | 0.66 | 0.00 | 84 | 1014.2 |
| 20260831132505 | 23 | 285 | 3.2 | 9.7 | 0.00 | 0.66 | 0.00 | 84 | 1014.2 |
| 20260831132005 | 23 | 211 | 1.6 | 9.7 | 0.00 | 0.66 | 0.00 | 84 | 1014.0 |
| 20260831131505 | 23 | 234 | 3.2 | 9.7 | 0.00 | 0.66 | 0.00 | 83 | 1014.1 |
| 20260831131005 | 23 | 117 | 3.2 | 11.3 | 0.00 | 0.66 | 0.00 | 83 | 1013.9 |
| 20260831130504 | 23 | 84 | 1.6 | 11.3 | 0.00 | 0.66 | 0.00 | 83 | 1013.9 |
| 20260831130004 | 23 | 247 | 3.2 | 12.9 | 0.00 | 0.66 | 0.00 | 83 | 1013.9 |
| 20260831125503 | 23 | 252 | 6.4 | 12.9 | 0.00 | 1.52 | 0.00 | 82 | 1013.8 |